| time (UTC) | temp F | wind direction | speed knots | gust knots | rain 1hr in | rain 24hr in | rain mn in | humidity % | barometer mb |
| 20260507234919 | 68 | 43 | 0.0 | 0.0 | 0.00 | 0.00 | 0.00 | 95 | 1010.3 |
| 20260507234447 | 69 | 50 | 0.9 | 0.0 | 0.00 | 0.00 | 0.00 | 94 | 1010.4 |
| 20260507233938 | 69 | 45 | 2.6 | 0.0 | 0.00 | 0.00 | 0.00 | 94 | 1010.4 |
| 20260507233431 | 69 | 41 | 0.9 | 0.0 | 0.00 | 0.00 | 0.00 | 95 | 1010.6 |
| 20260507232927 | 69 | 40 | 1.7 | 0.0 | 0.00 | 0.00 | 0.00 | 97 | 1010.5 |
| 20260507232421 | 69 | 38 | 0.0 | 0.0 | 0.00 | 0.00 | 0.00 | 99 | 1010.5 |
| 20260507231935 | 68 | 36 | 0.0 | 0.0 | 0.00 | 0.00 | 0.00 | 100 | 1010.7 |
| 20260507231449 | 68 | 35 | 0.0 | 0.0 | 0.00 | 0.00 | 0.00 | 100 | 1010.8 |
| 20260507230940 | 68 | 36 | 0.0 | 0.0 | 0.00 | 0.00 | 0.00 | 100 | 1010.8 |
| 20260507230435 | 68 | 33 | 0.0 | 0.0 | 0.00 | 0.00 | 0.00 | 100 | 1010.7 |
| 20260507225926 | 68 | 41 | 0.0 | 0.0 | 0.00 | 0.00 | 0.00 | 100 | 1010.8 |
| 20260507225456 | 68 | 31 | 0.0 | 0.0 | 0.00 | 0.00 | 0.00 | 100 | 1010.8 |
| 20260507224930 | 68 | 36 | 0.0 | 0.0 | 0.00 | 0.00 | 0.00 | 100 | 1010.8 |
| 20260507224422 | 68 | 34 | 0.0 | 0.0 | 0.00 | 0.00 | 0.00 | 100 | 1010.8 |
| 20260507223955 | 68 | 36 | 0.0 | 0.0 | 0.00 | 0.00 | 0.00 | 100 | 1010.9 |
| 20260507223444 | 68 | 33 | 0.0 | 0.0 | 0.00 | 0.00 | 0.00 | 100 | 1010.8 |
| 20260507222929 | 68 | 36 | 0.0 | 0.0 | 0.00 | 0.00 | 0.00 | 100 | 1011.0 |
| 20260507222434 | 68 | 32 | 0.0 | 0.0 | 0.00 | 0.00 | 0.00 | 100 | 1010.9 |
| 20260507221928 | 68 | 34 | 0.0 | 0.0 | 0.00 | 0.00 | 0.00 | 100 | 1011.0 |
| 20260507221441 | 68 | 33 | 0.0 | 0.0 | 0.00 | 0.00 | 0.00 | 100 | 1011.0 |
| 20260507220944 | 68 | 29 | 0.0 | 0.0 | 0.00 | 0.00 | 0.00 | 100 | 1011.0 |
| 20260507220417 | 68 | 31 | 0.9 | 0.0 | 0.00 | 0.00 | 0.00 | 100 | 1010.9 |
| 20260507215923 | 69 | 30 | 0.0 | 0.0 | 0.00 | 0.00 | 0.00 | 100 | 1011.0 |
| 20260507215432 | 68 | 30 | 0.0 | 0.0 | 0.00 | 0.00 | 0.00 | 100 | 1010.9 |
| 20260507214925 | 69 | 27 | 0.0 | 0.0 | 0.00 | 0.00 | 0.00 | 100 | 1011.0 |
| 20260507214420 | 69 | 27 | 0.0 | 0.0 | 0.00 | 0.00 | 0.00 | 100 | 1011.0 |
| 20260507213927 | 69 | 31 | 0.0 | 0.0 | 0.00 | 0.00 | 0.00 | 100 | 1010.9 |
| 20260507213436 | 68 | 31 | 0.0 | 0.0 | 0.00 | 0.00 | 0.00 | 100 | 1010.9 |
| 20260507212932 | 68 | 32 | 0.0 | 0.0 | 0.00 | 0.00 | 0.00 | 100 | 1010.9 |
| 20260507212430 | 68 | 34 | 0.0 | 0.0 | 0.00 | 0.00 | 0.00 | 100 | 1010.9 |
| 20260507212001 | 68 | 28 | 1.7 | 0.0 | 0.00 | 0.00 | 0.00 | 100 | 1010.7 |
| 20260507211919 | 68 | 28 | 1.7 | 0.0 | 0.00 | 0.00 | 0.00 | 100 | 1010.7 |
| 20260507211431 | 69 | 34 | 1.7 | 0.0 | 0.00 | 0.00 | 0.00 | 100 | 1010.9 |
| 20260507210941 | 69 | 39 | 1.7 | 0.0 | 0.00 | 0.00 | 0.00 | 100 | 1010.9 |
| 20260507210429 | 68 | 26 | 4.3 | 0.0 | 0.00 | 0.00 | 0.00 | 100 | 1010.9 |
| 20260507205920 | 68 | 44 | 2.6 | 0.0 | 0.00 | 0.00 | 0.00 | 100 | 1011.0 |
| 20260507205434 | 68 | 44 | 2.6 | 0.0 | 0.00 | 0.00 | 0.00 | 100 | 1011.1 |
| 20260507204922 | 67 | 41 | 2.6 | 0.0 | 0.00 | 0.00 | 0.00 | 100 | 1011.2 |
| 20260507204428 | 67 | 215 | 0.9 | 0.0 | 0.00 | 0.00 | 0.00 | 100 | 1011.1 |
| 20260507203923 | 67 | 206 | 0.0 | 0.0 | 0.00 | 0.00 | 0.00 | 100 | 1011.2 |
| 20260507203435 | 67 | 211 | 0.0 | 0.0 | 0.00 | 0.00 | 0.00 | 100 | 1011.0 |
| 20260507202949 | 66 | 212 | 0.0 | 0.0 | 0.00 | 0.00 | 0.00 | 100 | 1011.2 |
| 20260507202419 | 66 | 215 | 0.9 | 0.0 | 0.00 | 0.00 | 0.00 | 100 | 1011.2 |
| 20260507201928 | 66 | 214 | 1.7 | 0.0 | 0.00 | 0.00 | 0.00 | 100 | 1011.2 |
| 20260507201420 | 66 | 218 | 0.9 | 0.0 | 0.00 | 0.00 | 0.00 | 100 | 1011.1 |
| 20260507200944 | 66 | 212 | 3.5 | 0.0 | 0.00 | 0.00 | 0.00 | 100 | 1011.3 |
| 20260507200434 | 67 | 210 | 0.9 | 0.0 | 0.00 | 0.00 | 0.00 | 100 | 1011.3 |
| 20260507195928 | 67 | 202 | 0.0 | 0.0 | 0.00 | 0.00 | 0.00 | 100 | 1011.2 |
| 20260507195428 | 68 | 205 | 0.9 | 0.0 | 0.00 | 0.00 | 0.00 | 100 | 1011.3 |
| 20260507194924 | 68 | 204 | 0.0 | 0.0 | 0.00 | 0.00 | 0.00 | 100 | 1011.3 |
| 20260507194452 | 68 | 206 | 0.0 | 0.0 | 0.00 | 0.00 | 0.00 | 100 | 1011.3 |
| 20260507193945 | 68 | 202 | 0.0 | 0.0 | 0.00 | 0.00 | 0.00 | 100 | 1011.4 |
| 20260507193434 | 68 | 208 | 0.0 | 0.0 | 0.00 | 0.00 | 0.00 | 100 | 1011.3 |
| 20260507192931 | 68 | 208 | 0.0 | 0.0 | 0.00 | 0.00 | 0.00 | 100 | 1011.4 |
| 20260507192453 | 68 | 210 | 0.0 | 0.0 | 0.00 | 0.00 | 0.00 | 100 | 1011.4 |
| 20260507191930 | 68 | 204 | 0.9 | 0.0 | 0.00 | 0.00 | 0.00 | 100 | 1011.4 |
| 20260507191426 | 68 | 204 | 2.6 | 0.0 | 0.00 | 0.00 | 0.00 | 100 | 1011.5 |
| 20260507190939 | 68 | 206 | 0.0 | 0.0 | 0.00 | 0.00 | 0.00 | 100 | 1011.4 |
| 20260507190437 | 69 | 202 | 0.0 | 0.0 | 0.00 | 0.00 | 0.00 | 100 | 1011.3 |
| 20260507185923 | 69 | 202 | 0.0 | 0.0 | 0.00 | 0.00 | 0.00 | 100 | 1011.2 |
| 20260507185510 | 69 | 204 | 0.0 | 0.0 | 0.00 | 0.00 | 0.00 | 100 | 1011.0 |
| 20260507184937 | 69 | 206 | 0.0 | 0.0 | 0.00 | 0.00 | 0.00 | 100 | 1011.1 |
| 20260507184425 | 69 | 200 | 0.0 | 0.0 | 0.00 | 0.00 | 0.00 | 100 | 1011.1 |
| 20260507183932 | 69 | 203 | 0.0 | 0.0 | 0.00 | 0.00 | 0.00 | 100 | 1011.1 |
| 20260507183421 | 69 | 207 | 0.0 | 0.0 | 0.00 | 0.00 | 0.00 | 100 | 1011.2 |
| 20260507182934 | 69 | 199 | 0.0 | 0.0 | 0.00 | 0.00 | 0.00 | 100 | 1011.0 |
| 20260507182422 | 69 | 201 | 0.0 | 0.0 | 0.00 | 0.00 | 0.00 | 100 | 1011.1 |
| 20260507181933 | 69 | 206 | 0.0 | 0.0 | 0.00 | 0.00 | 0.00 | 100 | 1011.2 |
| 20260507181447 | 69 | 203 | 0.0 | 0.0 | 0.00 | 0.00 | 0.00 | 100 | 1011.0 |
| 20260507180939 | 69 | 203 | 0.0 | 0.0 | 0.00 | 0.00 | 0.00 | 100 | 1011.0 |
| 20260507180418 | 69 | 209 | 0.0 | 0.0 | 0.00 | 0.00 | 0.00 | 100 | 1011.0 |
| 20260507175936 | 69 | 201 | 0.0 | 0.0 | 0.00 | 0.00 | 0.00 | 100 | 1011.2 |
| 20260507175437 | 69 | 202 | 0.0 | 0.0 | 0.00 | 0.00 | 0.00 | 100 | 1011.2 |
| 20260507174947 | 69 | 203 | 0.0 | 0.0 | 0.00 | 0.00 | 0.00 | 100 | 1011.1 |
| 20260507174418 | 69 | 207 | 0.0 | 0.0 | 0.00 | 0.00 | 0.00 | 100 | 1011.2 |
| 20260507173928 | 70 | 203 | 0.0 | 0.0 | 0.00 | 0.00 | 0.00 | 100 | 1011.1 |
| 20260507173434 | 69 | 202 | 0.9 | 0.0 | 0.00 | 0.00 | 0.00 | 100 | 1011.0 |
| 20260507172926 | 70 | 198 | 0.0 | 0.0 | 0.00 | 0.00 | 0.00 | 100 | 1011.0 |
| 20260507172455 | 70 | 202 | 0.0 | 0.0 | 0.00 | 0.00 | 0.00 | 100 | 1011.1 |
| 20260507171931 | 70 | 202 | 0.0 | 0.0 | 0.00 | 0.00 | 0.00 | 100 | 1011.0 |
| 20260507171448 | 70 | 198 | 0.0 | 0.0 | 0.00 | 0.00 | 0.00 | 100 | 1011.1 |
| 20260507171000 | 70 | 195 | 0.0 | 0.0 | 0.00 | 0.00 | 0.00 | 100 | 1011.1 |
| 20260507170426 | 70 | 196 | 0.0 | 0.0 | 0.00 | 0.00 | 0.00 | 100 | 1011.2 |
| 20260507165936 | 70 | 190 | 0.0 | 0.0 | 0.00 | 0.00 | 0.00 | 100 | 1011.1 |
| 20260507165426 | 70 | 195 | 0.9 | 0.0 | 0.00 | 0.00 | 0.00 | 100 | 1011.1 |
| 20260507164925 | 71 | 183 | 0.0 | 0.0 | 0.00 | 0.00 | 0.00 | 100 | 1011.1 |
| 20260507164432 | 71 | 175 | 0.0 | 0.0 | 0.00 | 0.00 | 0.00 | 100 | 1011.0 |
| 20260507163942 | 71 | 178 | 0.0 | 0.0 | 0.00 | 0.00 | 0.00 | 100 | 1011.0 |
| 20260507163440 | 71 | 193 | 0.9 | 0.0 | 0.00 | 0.00 | 0.00 | 100 | 1011.0 |
| 20260507162945 | 71 | 196 | 0.0 | 0.0 | 0.00 | 0.00 | 0.00 | 96 | 1011.0 |
| 20260507162420 | 71 | 225 | 0.0 | 0.0 | 0.00 | 0.00 | 0.00 | 93 | 1011.1 |
| 20260507161950 | 72 | 229 | 0.0 | 0.0 | 0.00 | 0.00 | 0.00 | 90 | 1011.2 |
| 20260507161427 | 72 | 227 | 0.0 | 0.0 | 0.00 | 0.00 | 0.00 | 89 | 1011.1 |
| 20260507161000 | 71 | 221 | 0.0 | 0.0 | 0.00 | 0.00 | 0.00 | 89 | 1011.2 |
| 20260507160431 | 71 | 227 | 0.0 | 0.0 | 0.00 | 0.00 | 0.00 | 90 | 1011.3 |
| 20260507155920 | 71 | 227 | 0.0 | 0.0 | 0.00 | 0.00 | 0.00 | 90 | 1011.4 |
| 20260507155428 | 71 | 217 | 0.0 | 0.0 | 0.00 | 0.00 | 0.00 | 91 | 1011.5 |
| 20260507154919 | 71 | 219 | 0.0 | 0.0 | 0.00 | 0.00 | 0.00 | 92 | 1011.6 |
| 20260507154431 | 71 | 217 | 0.0 | 0.0 | 0.00 | 0.00 | 0.00 | 90 | 1011.7 |
| 20260507153956 | 71 | 222 | 0.0 | 0.0 | 0.00 | 0.00 | 0.00 | 91 | 1011.5 |
| 20260507153447 | 71 | 224 | 0.0 | 0.0 | 0.00 | 0.00 | 0.00 | 93 | 1011.5 |
| 20260507152936 | 71 | 225 | 0.0 | 0.0 | 0.00 | 0.00 | 0.00 | 94 | 1011.5 |
| 20260507152421 | 72 | 225 | 0.0 | 0.0 | 0.00 | 0.00 | 0.00 | 96 | 1011.7 |
| 20260507151932 | 71 | 222 | 0.0 | 0.0 | 0.00 | 0.00 | 0.00 | 94 | 1011.6 |
| 20260507151450 | 71 | 225 | 0.0 | 0.0 | 0.00 | 0.00 | 0.00 | 96 | 1011.7 |
| 20260507150940 | 71 | 223 | 0.0 | 0.0 | 0.00 | 0.00 | 0.00 | 96 | 1011.7 |
| 20260507150418 | 71 | 215 | 0.0 | 0.0 | 0.00 | 0.00 | 0.00 | 96 | 1011.8 |
| 20260507145942 | 71 | 214 | 0.0 | 0.0 | 0.00 | 0.00 | 0.00 | 100 | 1011.9 |
| 20260507145429 | 71 | 215 | 0.0 | 0.0 | 0.00 | 0.00 | 0.00 | 100 | 1012.0 |
| 20260507144921 | 71 | 213 | 0.0 | 0.0 | 0.00 | 0.00 | 0.00 | 100 | 1012.0 |
| 20260507144419 | 71 | 210 | 0.0 | 0.0 | 0.00 | 0.00 | 0.00 | 100 | 1012.0 |
| 20260507143951 | 71 | 211 | 0.0 | 0.0 | 0.00 | 0.00 | 0.00 | 100 | 1012.0 |
| 20260507143421 | 72 | 204 | 0.0 | 0.0 | 0.00 | 0.00 | 0.00 | 100 | 1012.1 |
| 20260507142939 | 72 | 206 | 0.0 | 0.0 | 0.00 | 0.00 | 0.00 | 100 | 1012.1 |
| 20260507142423 | 72 | 197 | 0.0 | 0.0 | 0.00 | 0.00 | 0.00 | 100 | 1012.1 |
| 20260507141936 | 72 | 204 | 0.0 | 0.0 | 0.00 | 0.00 | 0.00 | 100 | 1012.1 |
| 20260507141431 | 72 | 200 | 0.0 | 0.0 | 0.00 | 0.00 | 0.00 | 100 | 1012.2 |
| 20260507140939 | 72 | 200 | 0.0 | 0.0 | 0.00 | 0.00 | 0.00 | 100 | 1012.3 |
| 20260507140428 | 72 | 202 | 0.0 | 0.0 | 0.00 | 0.00 | 0.00 | 100 | 1012.4 |
| 20260507135941 | 72 | 196 | 0.0 | 0.0 | 0.00 | 0.00 | 0.00 | 100 | 1012.3 |
| 20260507135423 | 72 | 194 | 0.0 | 0.0 | 0.00 | 0.00 | 0.00 | 100 | 1012.5 |
| 20260507134954 | 72 | 197 | 0.0 | 0.0 | 0.00 | 0.00 | 0.00 | 100 | 1012.6 |
| 20260507134426 | 72 | 196 | 0.0 | 0.0 | 0.00 | 0.00 | 0.00 | 100 | 1012.5 |
| 20260507133933 | 71 | 193 | 0.0 | 0.0 | 0.00 | 0.00 | 0.00 | 100 | 1012.7 |
| 20260507133421 | 71 | 192 | 0.9 | 0.0 | 0.00 | 0.00 | 0.00 | 100 | 1012.7 |
| 20260507132935 | 71 | 191 | 2.6 | 0.0 | 0.00 | 0.00 | 0.00 | 100 | 1012.7 |
| 20260507132440 | 71 | 202 | 0.9 | 0.0 | 0.00 | 0.00 | 0.00 | 100 | 1012.8 |
| 20260507131936 | 71 | 202 | 1.7 | 0.0 | 0.00 | 0.00 | 0.00 | 100 | 1012.7 |
| 20260507131429 | 72 | 234 | 0.9 | 0.0 | 0.00 | 0.00 | 0.00 | 100 | 1012.9 |
| 20260507130938 | 72 | 234 | 0.9 | 0.0 | 0.00 | 0.00 | 0.00 | 100 | 1012.9 |
| 20260507130458 | 72 | 237 | 0.0 | 0.0 | 0.00 | 0.00 | 0.00 | 100 | 1013.0 |
| 20260507125928 | 72 | 245 | 1.7 | 0.0 | 0.00 | 0.00 | 0.00 | 100 | 1013.1 |
| 20260507125423 | 72 | 251 | 0.0 | 0.0 | 0.00 | 0.00 | 0.00 | 100 | 1013.1 |
| 20260507124934 | 72 | 248 | 0.0 | 0.0 | 0.00 | 0.00 | 0.00 | 100 | 1013.1 |
| 20260507124427 | 72 | 259 | 0.0 | 0.0 | 0.00 | 0.00 | 0.00 | 100 | 1013.2 |
| 20260507123940 | 72 | 263 | 0.0 | 0.0 | 0.00 | 0.00 | 0.00 | 100 | 1013.3 |
| 20260507123451 | 72 | 260 | 0.0 | 0.0 | 0.00 | 0.00 | 0.00 | 100 | 1013.3 |
| 20260507122923 | 71 | 261 | 0.0 | 0.0 | 0.00 | 0.00 | 0.00 | 100 | 1013.4 |
| 20260507122456 | 71 | 267 | 0.0 | 0.0 | 0.00 | 0.00 | 0.00 | 100 | 1013.3 |
| 20260507121933 | 72 | 260 | 0.0 | 0.0 | 0.00 | 0.00 | 0.00 | 100 | 1013.4 |
| 20260507121427 | 72 | 255 | 2.6 | 0.0 | 0.00 | 0.00 | 0.00 | 100 | 1013.5 |
| 20260507120939 | 72 | 254 | 0.0 | 0.0 | 0.00 | 0.00 | 0.00 | 100 | 1013.4 |
| 20260507120428 | 72 | 253 | 0.0 | 0.0 | 0.00 | 0.00 | 0.00 | 100 | 1013.3 |
| 20260507115934 | 72 | 260 | 0.0 | 0.0 | 0.00 | 0.00 | 0.00 | 100 | 1013.7 |
| 20260507115424 | 72 | 252 | 0.0 | 0.0 | 0.00 | 0.00 | 0.00 | 100 | 1013.7 |
| 20260507114934 | 72 | 232 | 0.0 | 0.0 | 0.00 | 0.00 | 0.00 | 100 | 1013.5 |
| 20260507114426 | 72 | 235 | 0.0 | 0.0 | 0.00 | 0.00 | 0.00 | 100 | 1013.5 |
| 20260507113950 | 72 | 232 | 0.0 | 0.0 | 0.00 | 0.00 | 0.00 | 100 | 1013.5 |
| 20260507113435 | 72 | 234 | 0.0 | 0.0 | 0.00 | 0.00 | 0.00 | 100 | 1013.5 |
| 20260507112920 | 72 | 232 | 0.0 | 0.0 | 0.00 | 0.00 | 0.00 | 100 | 1013.7 |
| 20260507112429 | 72 | 233 | 0.0 | 0.0 | 0.00 | 0.00 | 0.00 | 100 | 1013.7 |
| 20260507111922 | 72 | 236 | 0.0 | 0.0 | 0.00 | 0.00 | 0.00 | 100 | 1013.8 |
| 20260507111436 | 72 | 233 | 0.0 | 0.0 | 0.00 | 0.00 | 0.00 | 100 | 1013.8 |
| 20260507110946 | 72 | 236 | 0.9 | 0.0 | 0.00 | 0.00 | 0.00 | 100 | 1013.8 |
| 20260507110418 | 72 | 237 | 0.0 | 0.0 | 0.00 | 0.00 | 0.00 | 100 | 1013.9 |
| 20260507105930 | 72 | 231 | 0.0 | 0.0 | 0.00 | 0.00 | 0.00 | 100 | 1014.0 |
| 20260507105419 | 72 | 234 | 0.0 | 0.0 | 0.00 | 0.00 | 0.00 | 100 | 1014.1 |
| 20260507104929 | 72 | 238 | 0.0 | 0.0 | 0.00 | 0.00 | 0.00 | 100 | 1014.1 |
| 20260507104423 | 72 | 228 | 0.0 | 0.0 | 0.00 | 0.00 | 0.00 | 100 | 1014.2 |
| 20260507103923 | 72 | 187 | 0.0 | 0.0 | 0.00 | 0.00 | 0.00 | 100 | 1014.3 |
| 20260507103435 | 72 | 184 | 0.0 | 0.0 | 0.00 | 0.00 | 0.00 | 100 | 1014.4 |
| 20260507102951 | 72 | 303 | 0.9 | 0.0 | 0.00 | 0.00 | 0.00 | 100 | 1014.3 |
| 20260507102436 | 72 | 315 | 0.0 | 0.0 | 0.00 | 0.00 | 0.00 | 100 | 1014.4 |
| 20260507102017 | 71 | 310 | 1.7 | 0.0 | 0.00 | 0.00 | 0.00 | 100 | 1014.4 |
| 20260507101430 | 71 | 305 | 0.9 | 0.0 | 0.00 | 0.00 | 0.00 | 100 | 1014.6 |
| 20260507101002 | 71 | 311 | 4.3 | 0.0 | 0.00 | 0.00 | 0.00 | 100 | 1014.5 |
| 20260507100442 | 71 | 307 | 1.7 | 0.0 | 0.00 | 0.00 | 0.00 | 100 | 1014.5 |
| 20260507095928 | 70 | 308 | 1.7 | 0.0 | 0.00 | 0.00 | 0.00 | 100 | 1014.5 |
| 20260507095432 | 70 | 200 | 0.0 | 0.0 | 0.00 | 0.00 | 0.00 | 100 | 1014.4 |
| 20260507094923 | 70 | 208 | 4.3 | 0.0 | 0.00 | 0.00 | 0.00 | 100 | 1014.4 |
| 20260507094435 | 70 | 203 | 1.7 | 0.0 | 0.00 | 0.00 | 0.00 | 100 | 1014.3 |
| 20260507093927 | 70 | 207 | 2.6 | 0.0 | 0.00 | 0.00 | 0.00 | 100 | 1014.2 |
| 20260507093429 | 70 | 206 | 4.3 | 0.0 | 0.00 | 0.00 | 0.00 | 100 | 1014.2 |
| 20260507092935 | 70 | 204 | 3.5 | 0.0 | 0.00 | 0.00 | 0.00 | 100 | 1014.3 |
| 20260507092421 | 70 | 201 | 0.9 | 0.0 | 0.00 | 0.00 | 0.00 | 100 | 1014.2 |
| 20260507091921 | 70 | 208 | 4.3 | 0.0 | 0.00 | 0.00 | 0.00 | 100 | 1014.1 |
| 20260507091454 | 71 | 207 | 1.7 | 0.0 | 0.00 | 0.00 | 0.00 | 100 | 1014.0 |
| 20260507090941 | 70 | 215 | 2.6 | 0.0 | 0.00 | 0.00 | 0.00 | 100 | 1014.1 |
| 20260507090430 | 70 | 207 | 3.5 | 0.0 | 0.00 | 0.00 | 0.00 | 100 | 1014.0 |
| 20260507085936 | 70 | 203 | 1.7 | 0.0 | 0.00 | 0.00 | 0.00 | 100 | 1014.1 |
| 20260507085431 | 70 | 202 | 0.0 | 0.0 | 0.00 | 0.00 | 0.00 | 100 | 1014.2 |
| 20260507084923 | 70 | 205 | 1.7 | 0.0 | 0.00 | 0.00 | 0.00 | 100 | 1014.1 |
| 20260507084432 | 70 | 200 | 0.0 | 0.0 | 0.00 | 0.00 | 0.00 | 100 | 1014.2 |
| 20260507083923 | 70 | 205 | 1.7 | 0.0 | 0.00 | 0.00 | 0.00 | 100 | 1014.3 |
| 20260507083436 | 70 | 209 | 3.5 | 0.0 | 0.00 | 0.00 | 0.00 | 100 | 1014.2 |
| 20260507082931 | 70 | 240 | 3.5 | 0.0 | 0.00 | 0.00 | 0.00 | 100 | 1014.2 |
| 20260507082437 | 70 | 252 | 2.6 | 0.0 | 0.00 | 0.00 | 0.00 | 100 | 1014.3 |
| 20260507081934 | 70 | 244 | 0.0 | 0.0 | 0.00 | 0.00 | 0.00 | 100 | 1014.4 |
| 20260507081425 | 70 | 243 | 1.7 | 0.0 | 0.00 | 0.00 | 0.00 | 100 | 1014.4 |
| 20260507080955 | 70 | 249 | 0.0 | 0.0 | 0.00 | 0.00 | 0.00 | 100 | 1014.3 |
| 20260507080424 | 70 | 244 | 0.0 | 0.0 | 0.00 | 0.00 | 0.00 | 100 | 1014.4 |
| 20260507075934 | 70 | 248 | 1.7 | 0.0 | 0.00 | 0.00 | 0.00 | 100 | 1014.5 |
| 20260507075427 | 70 | 242 | 0.0 | 0.0 | 0.00 | 0.00 | 0.00 | 100 | 1014.4 |
| 20260507074922 | 70 | 245 | 0.0 | 0.0 | 0.00 | 0.00 | 0.00 | 100 | 1014.6 |
| 20260507074426 | 69 | 244 | 1.7 | 0.0 | 0.00 | 0.00 | 0.00 | 100 | 1014.7 |
| 20260507073920 | 69 | 243 | 2.6 | 0.0 | 0.00 | 0.00 | 0.00 | 100 | 1014.7 |
| 20260507073417 | 68 | 265 | 2.6 | 0.0 | 0.00 | 0.00 | 0.00 | 100 | 1014.8 |
| 20260507072930 | 68 | 37 | 0.0 | 0.0 | 0.00 | 0.00 | 0.00 | 100 | 1014.8 |
| 20260507072440 | 68 | 39 | 0.0 | 0.0 | 0.00 | 0.00 | 0.00 | 100 | 1014.7 |
| 20260507071929 | 68 | 34 | 0.0 | 0.0 | 0.00 | 0.00 | 0.00 | 100 | 1014.6 |
| 20260507071425 | 67 | 31 | 0.0 | 0.0 | 0.00 | 0.00 | 0.00 | 100 | 1014.6 |
| 20260507070955 | 67 | 29 | 0.0 | 0.0 | 0.00 | 0.00 | 0.00 | 100 | 1014.6 |
| 20260507070448 | 67 | 33 | 0.0 | 0.0 | 0.00 | 0.00 | 0.00 | 100 | 1014.5 |
| 20260507065925 | 67 | 32 | 0.0 | 0.0 | 0.00 | 0.00 | 0.00 | 100 | 1014.4 |
| 20260507065428 | 68 | 35 | 0.0 | 0.0 | 0.00 | 0.00 | 0.00 | 100 | 1014.4 |
| 20260507064942 | 68 | 33 | 0.0 | 0.0 | 0.00 | 0.00 | 0.00 | 100 | 1014.4 |
| 20260507064432 | 68 | 32 | 0.9 | 0.0 | 0.00 | 0.00 | 0.00 | 100 | 1014.4 |
| 20260507063938 | 67 | 37 | 0.0 | 0.0 | 0.00 | 0.00 | 0.00 | 100 | 1014.4 |
| 20260507063428 | 66 | 25 | 0.9 | 0.0 | 0.00 | 0.00 | 0.00 | 100 | 1014.5 |
| 20260507062942 | 67 | 31 | 1.7 | 0.0 | 0.00 | 0.00 | 0.00 | 100 | 1014.4 |
| 20260507062421 | 67 | 41 | 1.7 | 0.0 | 0.00 | 0.00 | 0.00 | 100 | 1014.2 |
| 20260507061937 | 67 | 34 | 1.7 | 0.0 | 0.00 | 0.00 | 0.00 | 100 | 1014.2 |
| 20260507061430 | 66 | 36 | 1.7 | 0.0 | 0.00 | 0.00 | 0.00 | 100 | 1014.3 |
| 20260507060939 | 66 | 30 | 3.5 | 0.0 | 0.00 | 0.00 | 0.00 | 100 | 1014.3 |
| 20260507060432 | 65 | 31 | 0.0 | 0.0 | 0.00 | 0.00 | 0.00 | 100 | 1014.3 |
| 20260507055927 | 65 | 29 | 1.7 | 0.0 | 0.00 | 0.00 | 0.00 | 100 | 1014.3 |
| 20260507055432 | 64 | 25 | 1.7 | 0.0 | 0.00 | 0.00 | 0.00 | 100 | 1014.5 |
| 20260507054925 | 63 | 35 | 1.7 | 0.0 | 0.00 | 0.00 | 0.00 | 100 | 1014.6 |
| 20260507054457 | 62 | 37 | 0.9 | 0.0 | 0.00 | 0.00 | 0.00 | 100 | 1014.7 |
| 20260507053948 | 62 | 54 | 1.7 | 0.0 | 0.00 | 0.00 | 0.00 | 100 | 1014.6 |
| 20260507053422 | 62 | 49 | 2.6 | 0.0 | 0.00 | 0.00 | 0.00 | 100 | 1014.6 |
| 20260507052953 | 62 | 36 | 1.7 | 0.0 | 0.00 | 0.00 | 0.00 | 100 | 1014.5 |
| 20260507052427 | 62 | 28 | 1.7 | 0.0 | 0.00 | 0.00 | 0.00 | 100 | 1014.5 |
| 20260507051922 | 62 | 36 | 2.6 | 0.0 | 0.00 | 0.00 | 0.00 | 100 | 1014.6 |
| 20260507051433 | 62 | 33 | 1.7 | 0.0 | 0.00 | 0.00 | 0.00 | 100 | 1014.4 |
| 20260507050940 | 62 | 36 | 0.0 | 0.0 | 0.00 | 0.00 | 0.00 | 100 | 1014.4 |
| 20260507050428 | 62 | 40 | 0.0 | 0.0 | 0.00 | 0.00 | 0.00 | 100 | 1014.4 |
| 20260507045940 | 62 | 34 | 0.0 | 0.0 | 0.00 | 0.00 | 0.00 | 100 | 1014.3 |
| 20260507045426 | 62 | 35 | 0.0 | 0.0 | 0.00 | 0.00 | 0.00 | 100 | 1014.3 |
| 20260507044921 | 61 | 37 | 0.0 | 0.0 | 0.00 | 0.00 | 0.00 | 100 | 1014.4 |
| 20260507044419 | 61 | 34 | 0.9 | 0.0 | 0.00 | 0.00 | 0.00 | 100 | 1014.3 |
| 20260507043922 | 61 | 38 | 1.7 | 0.0 | 0.00 | 0.00 | 0.00 | 100 | 1014.2 |
| 20260507043432 | 61 | 36 | 1.7 | 0.0 | 0.00 | 0.00 | 0.00 | 100 | 1014.1 |
| 20260507042921 | 61 | 38 | 0.9 | 0.0 | 0.00 | 0.00 | 0.00 | 100 | 1014.1 |
| 20260507042430 | 61 | 42 | 0.0 | 0.0 | 0.00 | 0.00 | 0.00 | 100 | 1014.2 |
| 20260507041921 | 61 | 23 | 2.6 | 0.0 | 0.00 | 0.00 | 0.00 | 100 | 1014.1 |
| 20260507041434 | 61 | 48 | 2.6 | 0.0 | 0.00 | 0.00 | 0.00 | 100 | 1014.1 |
| 20260507041001 | 61 | 45 | 2.6 | 0.0 | 0.00 | 0.00 | 0.00 | 100 | 1014.1 |
| 20260507040450 | 61 | 32 | 4.3 | 0.0 | 0.00 | 0.00 | 0.00 | 100 | 1014.2 |
| 20260507035938 | 61 | 42 | 2.6 | 0.0 | 0.00 | 0.00 | 0.00 | 100 | 1014.2 |
| 20260507035428 | 60 | 72 | 2.6 | 0.0 | 0.00 | 0.00 | 0.00 | 100 | 1014.2 |
| 20260507034922 | 61 | 48 | 0.9 | 0.0 | 0.00 | 0.00 | 0.00 | 100 | 1014.0 |
| 20260507034432 | 60 | 41 | 2.6 | 0.0 | 0.00 | 0.00 | 0.00 | 100 | 1014.0 |
| 20260507033928 | 60 | 32 | 0.9 | 0.0 | 0.00 | 0.00 | 0.00 | 100 | 1013.9 |
| 20260507033423 | 60 | 36 | 2.6 | 0.0 | 0.00 | 0.00 | 0.00 | 100 | 1014.0 |
| 20260507032937 | 60 | 41 | 2.6 | 0.0 | 0.00 | 0.00 | 0.00 | 100 | 1013.8 |
| 20260507032429 | 60 | 32 | 2.6 | 0.0 | 0.00 | 0.00 | 0.00 | 100 | 1013.9 |
| 20260507031945 | 61 | 40 | 1.7 | 0.0 | 0.00 | 0.00 | 0.00 | 100 | 1013.9 |
| 20260507031437 | 60 | 39 | 0.0 | 0.0 | 0.00 | 0.00 | 0.00 | 100 | 1013.8 |
| 20260507030941 | 60 | 35 | 1.7 | 0.0 | 0.00 | 0.00 | 0.00 | 100 | 1013.7 |
| 20260507030432 | 60 | 46 | 0.0 | 0.0 | 0.00 | 0.00 | 0.00 | 100 | 1013.5 |
| 20260507025921 | 61 | 38 | 2.6 | 0.0 | 0.00 | 0.00 | 0.00 | 100 | 1013.4 |
| 20260507025427 | 61 | 35 | 0.0 | 0.0 | 0.00 | 0.00 | 0.00 | 100 | 1013.4 |
| 20260507024956 | 61 | 259 | 0.0 | 0.0 | 0.00 | 0.00 | 0.00 | 100 | 1013.6 |
| 20260507024423 | 61 | 245 | 0.0 | 0.0 | 0.00 | 0.00 | 0.00 | 100 | 1013.5 |
| 20260507023951 | 62 | 243 | 0.0 | 0.0 | 0.00 | 0.00 | 0.00 | 100 | 1013.7 |
| 20260507023420 | 62 | 234 | 0.0 | 0.0 | 0.00 | 0.00 | 0.00 | 100 | 1013.7 |
| 20260507022930 | 62 | 237 | 0.0 | 0.0 | 0.00 | 0.00 | 0.00 | 100 | 1013.8 |
| 20260507022424 | 62 | 241 | 0.0 | 0.0 | 0.00 | 0.00 | 0.00 | 100 | 1013.9 |
| 20260507021939 | 62 | 232 | 0.0 | 0.0 | 0.00 | 0.00 | 0.00 | 100 | 1014.0 |
| 20260507021430 | 62 | 239 | 0.0 | 0.0 | 0.00 | 0.00 | 0.00 | 100 | 1014.0 |
| 20260507020939 | 62 | 234 | 0.0 | 0.0 | 0.00 | 0.00 | 0.00 | 100 | 1014.1 |
| 20260507020436 | 62 | 242 | 0.0 | 0.0 | 0.00 | 0.00 | 0.00 | 100 | 1014.0 |
| 20260507015939 | 62 | 242 | 0.0 | 0.0 | 0.00 | 0.00 | 0.00 | 100 | 1014.1 |
| 20260507015430 | 62 | 152 | 2.6 | 0.0 | 0.00 | 0.00 | 0.00 | 100 | 1014.0 |
| 20260507014921 | 62 | 149 | 1.7 | 0.0 | 0.00 | 0.00 | 0.00 | 100 | 1014.2 |
| 20260507014426 | 62 | 142 | 1.7 | 0.0 | 0.00 | 0.00 | 0.00 | 100 | 1014.3 |
| 20260507013934 | 62 | 39 | 0.9 | 0.0 | 0.00 | 0.00 | 0.00 | 100 | 1014.2 |
| 20260507013429 | 62 | 41 | 0.0 | 0.0 | 0.00 | 0.00 | 0.00 | 100 | 1014.2 |
| 20260507012921 | 63 | 45 | 0.0 | 0.0 | 0.00 | 0.00 | 0.00 | 100 | 1014.1 |
| 20260507012450 | 63 | 43 | 0.0 | 0.0 | 0.00 | 0.00 | 0.00 | 8 | 1014.3 |
| 20260507011920 | 63 | 39 | 0.0 | 0.0 | 0.00 | 0.00 | 0.00 | 19 | 1014.3 |
| 20260507011430 | 62 | 41 | 0.0 | 0.0 | 0.00 | 0.00 | 0.00 | 33 | 1014.3 |
| 20260507011002 | 62 | 42 | 0.0 | 0.0 | 0.00 | 0.00 | 0.00 | 31 | 1014.3 |
| 20260507010438 | 62 | 43 | 0.0 | 0.0 | 0.00 | 0.00 | 0.00 | 35 | 1014.2 |
| 20260507005931 | 62 | 39 | 0.0 | 0.0 | 0.00 | 0.00 | 0.00 | 33 | 1014.2 |
| 20260507005429 | 62 | 41 | 0.0 | 0.0 | 0.00 | 0.00 | 0.00 | 21 | 1014.2 |
| 20260507004925 | 62 | 44 | 0.0 | 0.0 | 0.00 | 0.00 | 0.00 | 6 | 1014.0 |
| 20260507004456 | 63 | 43 | 0.0 | 0.0 | 0.00 | 0.00 | 0.00 | 2 | 1014.1 |
| 20260507003927 | 63 | 42 | 0.0 | 0.0 | 0.00 | 0.00 | 0.00 | 1 | 1014.0 |
| 20260507003436 | 63 | 45 | 0.0 | 0.0 | 0.00 | 0.00 | 0.00 | 100 | 1014.0 |
| 20260507002934 | 63 | 46 | 0.0 | 0.0 | 0.00 | 0.00 | 0.00 | 100 | 1014.1 |
| 20260507002420 | 63 | 43 | 0.0 | 0.0 | 0.00 | 0.00 | 0.00 | 100 | 1014.2 |
| 20260507001935 | 63 | 39 | 0.0 | 0.0 | 0.00 | 0.00 | 0.00 | 100 | 1014.2 |
| 20260507001505 | 63 | 37 | 0.0 | 0.0 | 0.00 | 0.00 | 0.00 | 100 | 1014.1 |
| 20260507001420 | 63 | 37 | 0.0 | 0.0 | 0.00 | 0.00 | 0.00 | 100 | 1014.1 |
| 20260507000947 | 63 | 41 | 0.0 | 0.0 | 0.00 | 0.00 | 0.00 | 100 | 1014.1 |
| 20260507000446 | 63 | 45 | 0.0 | 0.0 | 0.00 | 0.00 | 0.00 | 100 | 1014.0 |
| 20260506235930 | 63 | 41 | 0.0 | 0.0 | 0.00 | 0.00 | 0.00 | 100 | 1013.9 |
| 20260506235425 | 62 | 41 | 0.0 | 0.0 | 0.00 | 0.00 | 0.00 | 100 | 1014.0 |